Location: A�t Bou Chrif
(32.7193°N, 5.2385°W)
Time: 02:49:21
(UTC+00:00)

SL-8 Rocket - Pass Details

Date: 08 August 2020
Orbit: 958 x 990 km, 82.9° (Epoch: 20 September)

Event Time Altitude Azimuth Distance (km) Brightness Sun altitude
Rises 19:55:11 0° 189° (S) 3,624 6.8 -9.1°
Reaches altitude 10° 19:57:41 10° 192° (SSW) 2,684 6.2 -9.6°
Maximum altitude 20:03:48 73° 276° (W) 1,005 4.3 -10.7°
Drops below altitude 10° 20:10:01 10° 2° (N) 2,715 6.7 -11.9°
Sets 20:12:33 0° 4° (N) 3,670 7.4 -12.4°
